Location: Chavannes
(47.1090°N, 0.2226°W)
Time: 14:07:30
(UTC+00:00)

Cosmos 2227 - Pass Details

Date: 16 October 2021
Orbit: 833 x 862 km, 71.0° (Epoch: 02 December)

Event Time Altitude Azimuth Distance (km) Brightness Sun altitude
Rises 18:44:12 0° 335° (NNW) 3,449 7.8 -16.5°
Reaches altitude 10° 18:46:43 10° 339° (NNW) 2,511 7.0 -17.0°
Maximum altitude 18:52:25 57° 58° (ENE) 1,015 4.3 -17.9°
Enters shadow 18:55:28 27° 126° (SE) 1,598 5.2 -18.4°
